User: anonymous   Login
Location: Ostrava
(49.8330°N, 18.2830°E)
Time: 14:28:25
(UTC+02:00)
Language:

Lacrosse 5 - Orbit

View from above orbital plane
View from above orbital plane
View from above satellite
View from above satellite

Ground track
Ground track

The orbit data is extracted from the following two-line orbital elements,

1 28646U 05016A   15078.11773577 0.00000000  00000-0  00000-0 0    00
2 28646  57.0110 310.4796 0006000 124.7051 235.2949 14.52034941    05
Epoch (UTC): 19 March 2015 02:49:32
Eccentricity: 0.0006000
inclination: 57.0110°
perigee height: 715 km
apogee height: 723 km
right ascension of ascending node: 310.4796°
argument of perigee: 124.7051°
revolutions per day: 14.52034941
mean anomaly at epoch: 235.2949°
orbit number at epoch: 0

The dashed part of the orbit path shows where the satellite is in the earth's shadow,  

DLR